Regional Weather Roundup
Issued by NWS

Home | Current Version | Previous Version | Graphics & Text | Print | Product List | Glossary On
Versions: 1 2 3 4 5 6 7 8 9 10 11 12 13 14 15 16 17 18 19 20 21 22 23 24 25 26 27 28 29 30 31 32 33 34 35 36 37 38 39 40 41 42 43 44 45 46 47 48 49 50
000
ASUS44 KMEG 222010
RWRTN
TENNESSEE HOURLY STATE WEATHER ROUNDUP
NATIONAL WEATHER SERVICE MEMPHIS TN
300 PM CDT FRI SEP 22 2017

TNZ002-004-019-021-049-052-054-088>092-222100-
WEST TENNESSEE

CITY           SKY/WX    TMP DP  RH WIND       PRES   REMARKS
MEMPHIS INTL   MOSUNNY   92  64  39 NE7       30.00F HX  93
NWS MEMPHIS      N/A     90 N/A N/A MISG        N/A
JACKSON        SUNNY     90  67  46 VRB5      30.01F HX  93
DYERSBURG      SUNNY     92  68  45 NE6       30.01F HX  96
SOMERVILLE     MOSUNNY   90  70  51 CALM      30.00F HX  95
COVINGTON      MOSUNNY   86  73  66 CALM      30.00F HX  93
BOLIVAR        SUNNY     90  68  48 CALM      30.00F HX  93
PARIS          MOSUNNY   88  68  51 NE6       30.02F HX  91
HUNTINGDON     MOSUNNY   88  66  48 NE5       30.01F HX  90
LEXINGTON      MOSUNNY   88  68  51 CALM      30.01F HX  91
SAVANNAH       MOSUNNY   88  70  55 NE6       29.99F HX  92
$$

TNZ008-025-027-028-033-062-065-066-222100-
NORTH MIDDLE TENNESSEE

CITY           SKY/WX    TMP DP  RH WIND       PRES   REMARKS
NASHVILLE      MOSUNNY   91  63  39 CALM      30.03F HX  92
PORTLAND       SUNNY     88  66  48 NE6       30.03F HX  90
CLARKSVILLE    PTSUNNY   89  64  43 VRB3      30.03F HX  90
SMYRNA         MOSUNNY   87  66  50 CALM      30.04F
COOKEVILLE     SUNNY     88  66  48 VRB5      30.04F HX  90
GALLATIN       SUNNY     90  64  43 N5        30.05F HX  91
CROSSVILLE     MOSUNNY   82  63  52 N3        30.10F
$$

TNZ061-075-076-078-094-096-097-222100-
SOUTH MIDDLE TENNESSEE

CITY           SKY/WX    TMP DP  RH WIND       PRES   REMARKS
FAYETTEVILLE   SUNNY     88  64  45 CALM      30.03F
TULLAHOMA      SUNNY     84  63  48 CALM      30.05F
WINCHESTER     SUNNY     90  66  45 CALM      30.03F HX  92
MCMINNVILLE    SUNNY     88  68  51 CALM      30.04F HX  91
COLUMBIA       SUNNY     90 N/A N/A N5        30.00F
SHELBYVILLE    SUNNY     86  64  48 CALM      30.03F
$$

TNZ017-018-042-046-047-222100-
NORTHEAST TENNESSEE

CITY           SKY/WX    TMP DP  RH WIND       PRES   REMARKS
TRI CITIES     PTSUNNY   88  62  41 VRB3      30.07F
ELIZABETHTON   SUNNY     86  61  42 CALM      30.06F
$$

TNZ012-013-036-069-073-074-222100-
CENTRAL EAST TENNESSEE

CITY           SKY/WX    TMP DP  RH WIND       PRES   REMARKS
KNOXVILLE      PTSUNNY   86  61  42 NW5       30.04F
OAK RIDGE      SUNNY     87  63  44 VRB3      30.05F
DOWNTOWN KNOXV SUNNY     88  64  45 SE3       30.03F
GATLINBURG     SUNNY     88  57  35 VRB5      30.03F
MORRISTOWN     MOSUNNY   88  61  40 N6G13     30.04F
JACKSBORO      SUNNY     86  64  48 CALM      30.09F
$$

TNZ083-085-099-222100-
SOUTHEAST TENNESSEE

CITY           SKY/WX    TMP DP  RH WIND       PRES   REMARKS
CHATTANOOGA    MOSUNNY   89  65  44 VRB5      30.02F HX  91
DAYTON         CLEAR     88  70  55 SW5       30.02F HX  92
$$

SKY/WX REPORTED AS FAIR MEANS FEW OR NO CLOUDS BELOW
12 THOUSAND FEET.





USA.gov is the U.S. government's official web portal to all federal, state and local government web resources and services.